Regional Weather Roundup
Issued by NWS

Home | Current Version | Previous Version | Text Only | Print | Product List | Glossary Off
Versions: 1 2 3 4 5 6 7 8 9 10 11 12 13 14 15 16 17 18 19 20 21 22 23 24 25 26 27 28 29 30 31 32 33 34 35 36 37 38 39 40 41 42 43 44 45 46 47 48 49 50

000
ASUS43 KLSX 241907
RWRMO
WEATHER SUMMARY FOR MISSOURI
NATIONAL WEATHER SERVICE SPRINGFIELD MO
200 PM CDT MON APR 24 2017

NOTE: "FAIR" INDICATES FEW OR NO CLOUDS BELOW 12,000 FEET WITH NO
       SIGNIFICANT WEATHER AND/OR OBSTRUCTIONS TO VISIBILITY.
       CURRENT SKY AND/OR WEATHER CONDITIONS ARE NOT AVAILABLE FOR
       CHILLICOTHE AND FARMINGTON.

MOZ001>031-035>038-043-044-053-054-242000-
...NORTHERN AND WESTERN MISSOURI...

CITY           SKY/WX    TMP DP  RH WIND       PRES   REMARKS
KANSAS CTY INT PTSUNNY   73  37  27 S26       29.72F
KANSAS C DTWN  SUNNY     75  37  25 S22G31    29.73F
LEE`S SUMMIT   SUNNY     73  32  22 S24G35    29.74F
ST JOSEPH      SUNNY     74  35  24 S31G43    29.67F
CHILLICOTHE      N/A     74  29  19 S13G33    29.76F
KIRKSVILLE     CLOUDY    75  32  20 S17G26    29.78F

$$
MOZ066>068-077>081-088>096-101>105-242000-
...SOUTHWEST MISSOURI...

CITY           SKY/WX    TMP DP  RH WIND       PRES   REMARKS
SPRINGFIELD    SUNNY     72  33  24 S16       29.81F
JOPLIN         SUNNY     73  40  30 S17G25    29.77F
BRANSON        MOSUNNY   72  28  20 S12       29.86F

$$
MOZ032>034-039>042-045>050-055>058-069>072-242000-
...CENTRAL MISSOURI...

CITY           SKY/WX    TMP DP  RH WIND       PRES   REMARKS
COLUMBIA       SUNNY     75  34  22 S16G22    29.80F
JEFFERSON CITY SUNNY     76  28  17 SE12G20   29.81F
ROLLA          SUNNY     73  36  25 SE8       29.83F
SEDALIA        SUNNY     76  33  21 S17G29    29.79F
WHITEMAN AFB   MOSUNNY   73  32  22 S22G31    29.75F
OSAGE BEACH    SUNNY     74  30  19 VRB7      29.82F

$$
MOZ051-052-059>065-242000-
...EAST CENTRAL MISSOURI...

CITY           SKY/WX    TMP DP  RH WIND       PRES   REMARKS
ST LOUIS INTL  MOSUNNY   74  31  20 VRB5      29.86F
SPIRIT OF STL  MOSUNNY   75  30  19 VRB5      29.84F
ST CHARLES     SUNNY     75  27  17 SE10G17   29.84F

$$
MOZ072>076-082>087-097>100-106>115-242000-
...SOUTH CENTRAL AND SOUTHEAST MISSOURI...

CITY           SKY/WX    TMP DP  RH WIND       PRES   REMARKS
CAPE GIRARDEAU SUNNY     74  46  36 E8        29.84F
FARMINGTON     SUNNY     71  40  32 CALM      29.88F
POPLAR BLUFF   SUNNY     73  51  46 E5        29.85F
WEST PLAINS    SUNNY     72  34  24 S7        29.87F

$$



USA.gov is the U.S. government's official web portal to all federal, state and local government web resources and services.